Location: Newark
(52.3735°N, 16.9806°E)
Time: 22:06:34
(UTC+00:00)

N. Korean satellite - Pass Details

Date: 29 September 2021
Orbit: 450 x 494 km, 97.3° (Epoch: 28 October)

Event Time Altitude Azimuth Distance (km) Brightness Sun altitude
Rises 03:09:58 0° 28° (NNE) 2,542 10.9 -15.9°
Reaches altitude 10° 03:12:43 10° 52° (NE) 1,667 10.4 -15.5°
Maximum altitude 03:14:55 15° 90° (E) 1,368 9.9 -15.2°
Drops below altitude 10° 03:17:07 10° 128° (SE) 1,673 9.8 -14.8°
Sets 03:19:53 0° 152° (SSE) 2,556 10.4 -14.4°
